Hourly Data Report for July 27, 2011

HALIFAX STANFIELD INT'L A
NOVA SCOTIA

44°52'48.060" N
63°30'00.050" W
145.40 m
8202250
71395
YHZ

Download Data

Hourly Data (July 2011)
Hourly Data Report for July 27, 2011
TIME
LST
Temp Definition
°C
Dew Point Definition
°C
Rel Hum Definition
%
Precip. Amount Definition
mm

Wind Dir Definition
10's deg

Wind Spd Definition
km/h
Visibility Definition
km
Stn Press Definition
kPa
Hmdx Definition


Wind Chill Definition


Weather Definition


00:00 15.4 14.7 96   12 13 2.4 99.08     Drizzle, Fog
01:00 15.5 14.8 96   10 7 2.4 99.03     Fog
02:00 15.5 14.8 96   11 15 2.0 99.01     Drizzle, Fog
03:00 15.3 14.8 97   11 11 0.6 98.98     Fog
04:00 15.3 14.7 96   10 15 0.6 98.96     Fog
05:00 15.2 14.7 97   12 11 0.6 98.97     Fog
06:00 15.3 14.8 97   14 7 0.4 98.98     Fog
07:00 15.5 15.0 97   14 9 0.4 99.05     Fog
08:00 16.0 15.3 96   14 7 0.4 99.04     Fog
09:00 16.3 15.5 95   12 6 1.0 99.03     Fog
10:00 16.3 15.9 97   17 6 2.0 99.01     Fog
11:00 17.0 16.5 97   14 7 2.4 99.00     Fog
12:00 17.4 16.8 96   15 9 2.0 98.97     Fog
13:00 18.0 16.4 90   14 11 16.1 98.99     Cloudy
14:00 18.8 16.7 88   17 9 19.3 98.96     Cloudy
15:00 18.2 14.8 81   17 9 19.3 98.96     Cloudy
16:00 17.6 15.9 90   16 11 16.1 98.98     Cloudy
17:00 17.0 14.7 86   14 9 16.1 99.03     Rain Showers
18:00 16.8 15.9 94   16 13 16.1 99.04     Rain Showers
19:00 17.0 15.7 92   21 9 19.3 99.10     Cloudy
20:00 16.6 15.6 94     0 19.3 99.14     Mostly Cloudy
21:00 16.9 15.9 94     0 19.3 99.21     Cloudy
22:00 16.6 15.4 93   31 11 19.3 99.23     Cloudy
23:00 16.2 15.3 94   29 11 16.1 99.26     Cloudy

Notes on Data Quality.

Legend

  • E = Estimated
  • M = Missing
  • NA = Not Available*
  • [empty] = Indicates an unobserved value
Date modified: